Flag for Germany Weather past 2 weeks in Eisenhüttenstadt, Brandenburg, Germany

Now
75 °F

Rain. Overcast.


Feels Like: 75 °F
Forecast: 66 / 81 °F
Wind: 1 mph from West

Location: Lindenberg

Current Time: Jul 29, 2014 at 5:15:57 PM

Latest Report: Jul 29, 2014 at 4:00 PM


Visibility: 6 mi

Pressure: 29.71 "Hg

Humidity: 82%

Dew point: 69 °F

Location of EisenhüttenstadtLocation

Historic Weather in Eisenhüttenstadt — Graph

°F

Eisenhüttenstadt temperature yesterday

Maximum temperature yesterday: 80 °F (at 6:00 PM)
Minimum temperature yesterday: 66 °F (at 3:00 AM)
Average temperature yesterday: 72 °F

Past Weeks' High & Low Weather Summary

 TemperatureHumidityPressure
High93 °F (Jul 20, 4:00 PM)100% (Jul 26, 6:00 AM)30.16 "Hg (Jul 26, 6:00 AM)
Low59 °F (Jul 24, 6:00 AM)25% (Jul 20, 5:00 PM)29.71 "Hg (Jul 29, 4:00 PM)
Average73 °F67%29.97 "Hg
* Reported Jul 14 4:00 PM — Jul 29 4:00 PM, Eisenhüttenstadt, Weather by CustomWeather, © 2014

Note: Actual official high and low records may vary slightly from our data, if they occured in-between our weather recording intervals... More about our weather records

Advertising

Eisenhüttenstadt weather history for previous 24 hours

 ConditionsComfort  
Time TempWeatherWind HumidityBarometerVisibility
4:00 PM
Jul 29
75 °FRain. Overcast.1 mph82%29.71 "Hg6 mi
3:00 PM82 °FThunderstorms. Overcast.1 mph56%29.71 "Hg12 mi
2:00 PM83 °FOvercast.2 mph53%29.73 "Hg12 mi
1:00 PM82 °FPartly sunny.2 mph55%29.75 "Hg11 mi
12:00 PM81 °FPartly sunny.2 mph59%29.75 "Hg9 mi
11:00 AM78 °FScattered clouds.1 mph66%29.76 "Hg7 mi
10:00 AM77 °FScattered clouds.2 mph69%29.76 "Hg7 mi
9:00 AM73 °FScattered clouds.1 mph73%29.78 "Hg6 mi
8:00 AM70 °FFog.1 mph83%29.78 "Hg4 mi
7:00 AM68 °FFog.2 mph89%29.78 "Hg3 mi
6:00 AM67 °FOvercast.2 mph93%29.78 "Hg5 mi
5:00 AM67 °FOvercast.1 mph90%29.79 "Hg5 mi
4:00 AM67 °FPassing clouds.2 mph93%29.79 "Hg4 mi
3:00 AM68 °FOvercast.1 mph91%29.80 "Hg6 mi
2:00 AM69 °FOvercast.1 mph89%29.80 "Hg6 mi
1:00 AM71 °FOvercast.2 mph90%29.81 "Hg6 mi
12:00 AM70 °FOvercast.1 mph85%29.82 "Hg6 mi
10:00 PM
Jul 28
72 °FOvercast.2 mph83%29.84 "Hg6 mi
9:00 PM73 °FPartly sunny.2 mph81%29.83 "Hg6 mi
8:00 PM77 °FOvercast.1 mph79%29.82 "Hg7 mi
7:00 PM79 °FOvercast.1 mph72%29.82 "Hg9 mi
6:00 PM80 °FOvercast.1 mph69%29.83 "Hg9 mi
Weather by CustomWeather, © 2014

See weather overviewHow to use our weather pages